GFSMW_sfc_dewp_114.txt.gz
Dewpoint
36 40 43 44 45 46 47 48 50 52 43 41 54 57 62 63 64 64 65 65 67 68 67 65 66 67 66 66 67 66 66 66 65 64 64 63 63 63 61 61 61 62 62
38 39 40 42 44 44 46 48 48 49 50 45 41 55 58 61 62 64 66 66 66 66 67 66 66 66 66 65 66 65 64 64 65 62 61 59 60 62 62 62 61 63 64
35 36 38 39 41 42 44 44 46 47 48 51 50 43 56 58 60 64 66 66 65 66 68 66 66 66 66 64 64 65 64 62 63 64 59 58 54 55 59 61 61 63 64
33 33 34 36 37 38 41 42 44 45 46 49 50 51 46 53 58 61 64 65 67 66 66 67 66 66 66 64 64 64 64 64 61 63 62 60 57 55 54 59 61 62 62
32 31 32 33 34 37 38 40 42 43 45 48 50 52 50 55 56 61 62 64 66 66 66 66 66 65 65 65 64 64 64 64 62 61 61 61 60 59 57 54 56 59 61
31 31 32 32 33 35 36 37 39 40 42 45 49 52 55 53 55 57 61 62 65 65 65 65 65 65 65 64 64 64 64 64 63 62 61 60 59 59 58 57 56 56 57
30 30 30 30 32 32 34 35 35 37 39 43 46 50 54 56 59 57 60 62 63 63 64 65 64 64 65 65 64 64 64 64 63 63 62 61 59 58 57 57 57 57 57
28 29 30 31 31 32 33 35 34 35 37 41 44 48 53 56 58 59 58 61 63 63 64 64 64 64 64 64 64 64 64 64 64 64 64 61 61 60 58 57 57 56 57
28 28 28 30 30 30 32 33 34 34 37 40 44 48 53 59 60 61 62 62 64 63 64 64 64 64 64 64 64 63 63 64 64 64 65 63 62 61 61 60 58 57 55
28 29 28 30 30 30 31 32 33 33 36 40 44 47 52 58 61 63 63 63 64 64 64 64 64 63 63 64 64 63 63 63 63 63 63 63 62 62 62 61 60 59 58
29 31 31 31 32 32 30 31 32 33 35 40 44 47 52 61 62 63 63 64 64 64 64 64 64 63 63 63 63 63 62 62 62 62 62 62 62 61 61 61 61 60 59
28 30 30 30 31 30 30 30 31 32 34 38 42 44 46 51 62 62 63 64 63 64 63 63 62 62 62 62 62 61 61 61 61 61 61 61 61 61 61 61 60 60 59
26 27 28 27 28 28 29 28 29 32 33 36 40 42 42 44 48 57 60 61 61 61 61 61 61 62 61 61 61 61 61 61 61 60 60 60 59 60 60 60 59 59 58
26 26 26 26 27 28 28 27 28 30 32 34 35 38 39 41 43 45 47 48 52 56 53 51 46 44 43 44 48 54 56 57 57 58 59 58 57 57 58 58 58 57 57
23 24 25 26 27 27 27 26 27 29 31 31 32 35 37 36 38 39 40 42 42 43 43 40 39 39 37 37 41 47 52 53 54 55 55 55 52 46 46 52 57 58 57
23 24 25 25 26 27 28 26 27 28 29 30 31 31 34 34 34 34 36 35 37 36 36 35 35 36 36 37 37 42 49 48 46 45 45 47 48 47 42 42 41 45 55
23 23 25 25 27 28 29 28 29 29 28 28 29 30 31 32 33 33 32 32 32 33 33 33 33 33 34 35 37 38 40 38 37 37 37 39 41 42 43 43 40 38 36
21 22 23 24 26 26 26 26 25 26 27 27 29 30 30 30 31 31 31 31 31 31 31 31 31 31 32 33 35 35 35 34 33 33 32 35 36 37 38 42 39 36 35
23 23 24 24 24 26 26 25 25 25 25 26 27 29 30 30 30 30 31 31 30 30 30 29 29 29 30 32 32 32 32 31 30 30 30 31 33 33 36 38 37 35 34
22 22 22 22 23 25 26 26 26 26 26 27 27 28 29 30 30 31 32 32 32 31 30 29 29 29 28 30 31 30 29 27 27 27 28 29 30 31 32 34 35 33 32
21 21 21 20 21 24 24 24 24 23 25 27 28 28 29 29 30 31 31 31 31 31 31 31 31 30 30 30 30 29 27 27 26 26 25 27 28 29 29 29 30 30 31
20 20 19 20 21 23 23 22 21 23 24 25 26 26 27 28 29 29 30 29 30 30 32 32 31 31 31 29 29 28 27 28 26 25 26 27 27 27 27 27 27 27 27
20 20 19 19 21 22 23 21 22 23 22 23 24 25 26 26 28 27 27 27 28 27 27 28 29 29 30 30 28 28 27 27 29 27 28 27 27 25 25 26 25 25 25
18 19 18 19 19 21 22 22 22 24 23 21 22 23 23 25 25 25 25 23 23 24 23 24 24 26 27 27 28 29 30 27 28 28 29 28 28 28 27 25 26 26 26
17 17 17 16 17 18 19 21 21 21 21 20 21 22 20 21 21 21 19 19 21 21 21 22 23 23 23 25 24 25 25 26 26 29 29 28 27 26 26 26 26 27 26
8 8 9 10 10 11 14 14 16 17 18 18 17 17 18 18 18 18 19 17 16 16 17 18 20 21 20 20 21 20 21 22 23 25 24 24 24 23 23 23 24 24 24

GFSMW_sfc_dewp_117.txt.gz
Dewpoint
35 36 39 41 42 44 45 45 47 49 50 49 42 47 59 61 64 66 66 65 66 69 69 67 68 68 67 67 68 67 66 65 66 64 64 64 65 64 62 61 59 61 62
32 34 36 38 41 42 43 45 45 46 47 47 48 45 47 55 61 64 65 67 67 68 68 68 66 69 67 66 67 66 66 66 67 63 62 59 61 62 62 60 59 62 61
33 33 34 35 37 39 41 41 43 44 46 48 47 48 51 49 58 62 63 65 67 68 69 68 67 67 68 66 66 66 65 64 67 66 60 57 53 55 60 62 62 62 64
32 32 33 34 35 36 39 41 41 42 43 46 47 49 47 46 50 60 62 63 66 67 68 69 68 68 67 66 65 65 65 64 62 65 63 62 56 52 53 60 61 61 62
31 31 32 32 33 34 36 38 40 40 42 44 46 47 49 50 51 52 62 63 65 66 67 68 68 68 67 67 66 65 65 64 62 62 63 63 61 61 56 56 57 59 60
30 30 30 31 31 33 34 36 37 38 40 42 44 45 48 50 51 53 56 61 63 65 68 67 68 67 66 66 66 66 64 64 63 63 62 61 60 58 58 57 57 58 59
29 29 28 29 30 31 32 32 34 35 37 39 41 42 44 48 51 52 55 60 62 63 66 66 66 66 66 66 66 65 64 64 63 62 62 62 61 60 59 58 57 56 55
28 28 28 28 29 30 31 31 31 33 35 36 38 40 42 45 49 52 55 56 61 63 66 66 65 65 66 65 65 64 64 64 64 63 63 62 63 63 59 58 57 57 57
28 28 28 28 28 29 30 31 31 32 34 35 37 38 42 45 48 53 57 58 61 63 65 66 64 64 64 65 64 64 63 64 64 64 63 64 63 64 63 61 59 58 56
28 28 28 29 29 31 31 31 30 30 32 34 36 39 42 46 49 55 59 61 61 63 64 65 64 64 64 64 64 64 63 63 63 64 63 63 64 63 64 62 62 61 59
29 32 32 30 31 31 30 30 30 30 32 34 37 39 44 46 50 57 61 62 62 62 62 64 64 63 63 63 63 63 62 62 63 63 63 63 64 63 62 62 62 61 61
28 31 32 31 31 31 32 30 30 30 33 34 36 41 42 45 47 55 60 62 61 62 62 63 63 63 63 63 62 62 62 62 61 62 62 61 62 62 62 62 61 61 61
25 26 30 30 31 30 31 30 30 30 32 33 35 38 39 41 41 44 47 50 58 59 57 59 56 58 60 61 62 62 61 62 62 62 61 61 62 61 60 61 60 61 59
26 26 27 29 31 31 31 30 29 30 31 33 33 35 36 37 38 39 40 43 44 43 44 42 42 41 41 44 50 59 60 59 59 60 60 60 59 57 55 57 58 58 59
25 26 27 28 29 30 32 32 30 30 31 31 31 33 34 35 35 36 36 37 38 38 40 42 41 40 39 40 42 52 54 55 55 51 50 49 46 43 43 47 50 50 53
24 25 26 25 27 29 32 32 31 31 31 30 31 31 32 32 32 32 33 34 34 33 34 35 36 38 38 39 40 45 46 44 43 42 42 44 44 42 41 40 40 40 45
23 22 25 26 26 28 29 30 31 32 30 30 31 31 31 31 31 31 31 30 31 32 32 32 32 32 33 36 36 36 37 36 34 34 36 37 37 38 39 41 40 38 35
21 21 23 23 25 25 25 26 25 26 28 28 29 31 31 30 31 31 31 30 30 30 30 30 30 30 31 32 33 34 33 32 31 31 31 33 33 33 36 40 40 37 37
22 23 23 23 23 24 24 24 24 25 26 26 28 29 30 30 30 31 31 31 32 30 30 30 29 29 30 31 31 31 31 30 29 30 30 30 30 32 34 37 37 34 33
22 21 21 21 22 25 22 24 23 24 26 27 27 28 29 29 30 30 31 31 32 32 31 30 31 30 29 32 31 29 28 27 27 28 28 30 30 30 30 31 32 32 31
21 21 21 21 23 24 25 23 23 23 26 27 28 27 28 28 28 29 30 31 31 30 31 30 29 30 30 31 32 31 29 28 26 26 26 27 29 29 29 29 28 28 30
21 21 21 22 23 24 24 22 23 24 25 26 26 27 26 28 27 26 27 28 27 28 28 28 28 28 28 27 28 29 29 29 28 28 29 29 29 28 28 27 28 26 26
21 22 22 21 23 24 24 22 24 25 24 25 25 26 27 25 26 25 23 23 25 24 25 25 26 27 27 27 25 26 27 28 30 30 29 28 28 28 28 28 27 28 27
18 17 18 20 21 23 23 24 23 25 25 24 25 26 25 27 25 23 23 20 20 21 21 23 21 23 24 25 26 26 28 28 29 31 31 30 29 28 29 29 29 31 30
17 16 15 14 15 18 21 23 24 23 25 25 25 26 24 26 25 22 20 19 20 18 19 20 22 19 19 21 22 23 24 27 28 29 29 27 27 26 26 27 26 27 27
7 6 7 7 7 10 13 13 15 17 19 19 19 21 21 21 21 20 21 19 18 17 16 16 17 20 17 18 19 19 19 20 22 24 24 24 25 24 23 24 24 24 23

GFSMW_sfc_dewp_123.txt.gz
Dewpoint
33 33 34 34 34 34 35 36 37 39 41 42 43 43 44 46 49 53 55 65 65 66 67 67 66 66 65 66 65 65 65 65 65 63 61 62 64 64 63 63 62 63 62
31 31 32 32 32 33 33 34 34 35 36 38 39 41 42 45 47 49 53 54 61 66 66 66 65 67 65 64 65 65 64 64 65 61 61 59 60 63 63 63 63 62 62
30 30 29 30 30 30 31 32 32 33 34 35 36 38 41 43 45 47 49 52 55 62 65 65 65 65 66 64 64 65 64 63 64 62 60 56 55 58 61 62 62 62 62
29 28 28 28 28 29 29 29 30 30 31 33 33 34 36 39 42 44 46 48 52 55 60 64 65 64 66 66 63 66 65 64 62 63 61 59 58 55 55 60 62 61 61
28 27 28 27 27 28 28 28 29 30 30 30 31 32 33 37 39 41 42 44 47 52 56 61 64 66 65 66 65 63 66 64 62 62 62 60 59 59 56 55 58 60 61
27 27 27 27 27 27 27 27 28 28 29 30 30 31 32 34 35 37 39 41 44 48 52 56 61 63 65 65 65 65 65 65 63 63 62 61 59 58 57 55 56 59 59
27 27 26 26 26 26 27 28 28 28 28 29 29 30 31 32 34 35 38 39 42 45 49 54 57 62 62 64 65 65 64 64 63 63 63 63 61 60 59 58 56 56 58
27 28 27 27 28 28 28 29 29 29 29 29 29 30 31 33 34 35 37 39 40 43 46 50 53 58 61 62 63 64 63 61 61 62 63 62 62 62 61 59 57 53 56
28 29 28 28 28 29 30 31 31 30 30 31 32 32 33 34 35 36 37 39 41 42 44 48 51 55 59 61 61 62 62 62 61 61 63 62 61 61 61 61 59 56 52
28 28 28 28 29 30 31 33 31 30 30 32 34 35 35 37 38 39 39 40 42 44 44 46 48 53 57 60 60 60 61 61 63 62 62 62 61 61 62 61 60 58 55
27 27 28 29 30 31 32 33 32 31 31 33 34 35 36 37 37 39 41 42 45 45 47 47 49 52 57 59 58 60 60 61 62 62 62 61 61 61 62 62 61 59 58
27 27 28 29 29 30 31 32 31 31 32 33 34 34 34 35 36 36 38 40 42 46 49 50 51 54 53 54 54 55 55 52 61 61 62 61 61 61 62 61 60 60 59
25 27 27 27 28 29 30 32 31 30 32 32 33 33 33 33 34 35 35 36 37 38 40 41 41 42 43 45 49 52 54 60 61 61 61 61 61 61 61 59 59 58 58
25 26 25 26 27 29 29 30 30 30 31 31 32 32 32 33 33 33 33 34 34 34 34 35 36 36 37 39 44 52 59 59 59 56 55 52 53 57 59 60 59 57 57
23 25 25 25 25 25 25 27 28 29 30 29 29 30 32 33 33 32 31 31 32 32 32 32 32 34 34 35 37 41 42 43 44 43 40 40 41 41 43 50 50 52 51
21 21 21 20 22 22 22 23 24 27 27 28 27 29 30 31 32 32 31 30 30 30 31 31 31 31 32 34 34 34 34 36 36 37 36 36 38 41 39 37 37 37 45
20 19 19 20 22 22 22 22 23 24 23 24 25 25 27 28 29 31 31 29 28 29 28 30 30 30 31 33 33 32 31 32 32 32 33 34 35 38 41 37 36 35 35
19 19 20 20 22 22 22 21 22 22 23 20 23 23 23 24 26 27 28 30 28 27 27 27 28 29 31 33 32 32 31 29 29 30 30 30 31 34 37 35 33 31 32
21 21 22 22 22 22 22 21 22 22 22 21 20 21 20 21 22 23 25 25 26 25 24 24 25 25 28 32 32 30 30 29 29 30 31 30 30 31 32 31 30 29 28
21 20 21 22 21 21 22 20 20 21 22 24 21 21 19 18 19 21 22 24 22 22 22 21 22 25 24 29 31 30 29 28 28 30 30 32 31 32 30 28 27 25 26
17 19 18 17 18 19 19 18 17 19 20 22 24 22 21 19 19 18 19 20 21 20 19 19 20 21 24 24 28 29 29 28 27 28 28 30 30 29 29 30 29 27 27
18 16 14 14 17 17 17 16 17 17 18 19 19 21 21 21 19 18 17 17 17 17 17 17 17 19 21 24 23 26 27 28 26 26 27 27 27 27 26 26 27 27 28
18 17 13 11 15 17 17 17 18 16 17 19 18 17 19 19 19 17 17 16 16 15 15 16 16 17 19 21 23 22 24 26 25 24 24 24 23 23 24 23 24 24 25
17 20 16 13 14 14 16 17 19 20 17 18 18 19 15 17 16 18 17 17 16 15 16 15 15 16 17 19 22 21 22 22 23 22 21 21 22 21 20 21 21 22 23
17 17 16 16 16 17 16 17 19 20 20 20 19 20 21 18 16 19 18 18 19 17 15 16 17 17 16 17 20 20 19 19 19 18 18 17 17 16 17 18 19 19 20
11 9 10 11 12 13 15 17 18 17 18 20 19 18 19 19 19 18 18 23 22 21 18 16 17 18 18 17 17 18 17 17 18 15 13 13 14 14 15 15 16 17 17

GFSMW_sfc_dewp_129.txt.gz
Dewpoint
28 28 28 28 27 27 27 27 28 29 30 31 30 31 32 32 38 37 41 47 50 52 54 57 57 56 62 62 64 65 65 64 64 61 61 61 61 62 63 63 63 63 63
27 27 27 27 26 26 27 27 27 28 28 29 29 30 30 32 33 37 40 42 46 47 46 49 52 55 59 62 62 64 63 64 65 61 61 59 61 62 62 63 62 63 63
26 26 26 26 26 26 27 28 28 28 29 29 29 29 29 30 31 32 33 36 38 41 46 47 49 53 57 61 60 61 63 61 63 63 59 57 57 59 61 62 62 62 62
26 27 26 26 26 27 28 29 29 28 29 30 29 28 28 28 29 30 31 33 36 39 42 44 45 49 53 56 60 61 60 61 61 62 63 61 59 57 56 60 62 62 62
27 27 26 26 27 28 28 28 28 29 29 29 29 29 28 29 30 30 31 32 34 36 39 42 45 47 50 54 58 60 59 60 61 61 61 61 60 59 56 56 60 62 62
27 27 27 27 27 27 27 27 30 28 28 28 28 28 28 29 30 31 31 32 34 35 37 39 41 46 50 53 57 59 61 61 61 61 61 59 58 57 57 55 56 59 60
26 26 26 25 25 26 26 29 29 27 27 27 27 28 28 30 33 33 34 34 35 36 37 38 41 42 44 47 48 50 56 61 62 61 61 61 60 60 59 58 56 56 58
26 26 25 25 25 25 26 29 28 28 28 29 30 30 31 34 34 35 36 36 37 37 38 39 39 40 42 44 46 48 50 55 61 61 62 61 62 61 61 59 57 55 55
25 25 25 25 25 27 26 29 29 28 29 30 31 32 33 35 35 36 37 37 39 40 41 41 42 41 42 44 46 47 49 54 58 60 61 60 61 61 59 57 57 57 52
24 25 25 26 26 27 26 28 28 29 30 29 29 30 33 35 35 35 35 36 37 38 39 42 42 44 44 45 46 46 48 51 55 59 59 58 60 58 58 59 58 58 58
23 23 24 25 25 26 26 28 28 27 26 28 28 30 31 33 34 34 34 35 35 35 36 38 40 44 46 47 48 48 48 50 55 58 59 57 57 57 57 56 57 58 59
24 23 22 21 23 25 26 26 27 26 26 28 28 29 30 33 32 32 32 33 34 35 35 35 36 37 39 42 46 50 51 53 55 58 57 56 57 55 55 56 57 56 58
23 23 22 21 22 24 24 25 25 25 25 27 27 27 27 30 30 30 30 30 31 32 32 33 33 33 35 37 40 43 46 43 43 44 45 45 52 56 56 57 57 57 57
22 20 21 22 23 24 23 24 24 24 23 25 25 24 25 27 29 28 28 28 28 29 30 31 31 32 32 34 35 36 38 38 38 39 39 38 38 42 43 50 58 56 56
20 20 20 21 22 23 23 23 23 23 22 22 21 22 24 26 25 26 25 25 26 27 28 30 30 31 32 32 32 33 34 34 34 35 36 38 37 37 37 39 38 40 54
18 18 18 18 20 21 22 22 23 23 22 21 19 20 20 21 23 23 23 23 23 24 25 27 29 30 31 33 32 31 30 30 31 31 32 34 35 35 34 35 34 33 37
17 17 18 19 21 21 21 21 22 23 21 20 19 18 18 17 19 20 20 20 21 22 23 25 27 28 30 32 32 31 29 28 28 28 29 30 32 34 34 32 32 32 33
16 17 19 20 21 21 21 21 21 20 20 19 19 18 17 16 16 17 17 18 19 20 21 23 24 26 27 29 30 30 28 27 27 28 28 28 29 31 31 30 29 28 30
20 18 20 21 21 21 21 20 21 19 19 18 18 19 18 17 16 16 17 18 18 19 20 21 22 22 23 27 26 26 25 25 25 26 28 27 28 30 31 28 27 27 27
20 18 19 20 19 18 20 17 18 19 18 19 19 19 18 18 17 16 17 17 18 18 19 19 22 22 21 23 23 24 23 22 22 23 24 27 26 27 27 25 25 24 26
18 19 16 15 13 13 18 15 13 13 13 17 18 18 18 18 18 17 17 18 18 18 17 17 19 20 20 20 21 22 21 21 20 19 20 23 24 25 25 25 24 23 25
17 13 14 11 10 13 15 14 14 10 11 11 13 14 14 17 16 16 16 16 17 17 17 16 15 17 19 19 20 19 19 19 17 17 18 19 20 21 21 20 21 22 21
17 15 12 11 10 13 11 14 10 12 14 12 11 7 11 14 13 14 14 14 15 16 16 15 14 14 16 17 18 18 17 16 14 15 15 16 16 16 16 17 17 16 17
15 14 14 11 10 7 13 11 13 14 13 12 13 13 12 14 16 15 16 14 14 16 14 15 13 12 13 14 15 15 15 14 12 10 10 10 12 9 10 12 13 12 12
17 17 16 16 15 16 15 12 16 18 17 17 16 16 17 12 12 15 16 14 14 16 14 12 15 12 11 12 14 13 11 12 11 7 6 6 6 5 6 7 7 8 7
16 14 14 14 14 16 17 18 17 18 17 16 15 15 15 14 14 11 10 16 15 15 15 15 13 11 14 13 12 12 12 11 10 5 2 1 2 3 3 3 3 3 3

GFSMW_sfc_dewp_132.txt.gz
Dewpoint
27 27 26 26 26 27 28 28 29 30 29 29 29 29 30 30 33 33 37 41 39 46 47 46 49 51 54 56 60 60 61 61 63 62 62 63 63 63 63 63 63 63 63
26 26 26 26 27 27 28 29 29 29 29 29 29 29 29 30 31 33 34 35 39 38 39 42 46 48 50 54 58 59 58 59 61 61 60 58 60 61 62 63 63 63 63
26 26 26 26 27 28 28 28 28 29 29 30 29 29 29 30 30 30 31 32 33 36 38 41 44 45 48 50 53 59 59 57 59 60 60 56 55 59 61 62 62 62 63
27 26 26 26 27 27 28 27 28 29 28 28 28 28 28 28 29 30 31 32 33 35 37 38 39 42 43 46 50 53 61 60 56 60 63 62 60 56 56 61 62 63 62
27 26 26 27 27 26 26 27 29 27 27 27 27 28 28 28 30 30 31 32 33 35 36 38 39 41 44 45 48 52 54 59 59 57 58 58 59 60 57 55 59 62 62
26 26 26 25 25 26 26 27 29 27 28 28 28 27 27 27 28 29 30 34 35 36 37 38 39 39 41 43 47 52 54 57 58 58 57 57 57 57 57 56 56 58 60
25 25 25 25 25 25 26 26 27 26 27 27 29 29 30 31 31 32 33 34 35 36 37 38 39 40 39 41 43 45 47 49 58 57 57 58 59 59 59 57 56 56 58
25 25 25 25 25 25 25 25 26 25 26 26 27 27 30 31 33 33 35 35 36 37 39 40 40 41 41 40 41 43 44 47 49 53 58 58 57 61 60 59 58 56 56
24 24 24 25 25 25 25 26 25 25 26 27 27 27 28 32 33 34 35 36 36 37 38 39 40 43 43 43 43 44 44 48 50 54 56 59 60 61 61 60 59 56 50
23 24 24 24 24 25 25 25 26 26 26 27 26 27 28 33 32 33 33 35 36 36 36 37 39 40 44 44 44 44 46 47 48 49 50 57 59 61 61 60 59 58 55
21 21 21 22 23 23 24 25 26 25 25 25 27 27 28 30 31 30 31 32 34 35 34 35 35 37 39 42 46 46 47 48 48 50 53 54 56 59 59 59 58 57 56
21 20 18 17 18 20 23 25 25 23 23 25 26 26 27 27 29 28 29 31 31 34 33 34 33 34 36 38 39 43 47 49 50 49 52 53 56 57 57 56 57 57 57
21 19 18 18 16 21 23 25 24 23 23 24 24 24 24 26 26 26 27 28 29 31 33 32 32 32 32 34 35 37 38 39 40 40 39 39 43 52 55 55 55 56 57
21 19 19 21 22 24 24 24 23 23 22 21 21 21 22 23 24 25 25 26 27 28 30 31 31 31 31 31 31 32 33 34 34 36 37 36 36 36 41 47 46 54 56
19 19 20 21 22 22 23 23 23 21 22 20 19 19 20 21 22 22 23 24 25 26 28 27 28 30 31 31 29 29 29 29 30 32 32 34 36 35 35 35 36 38 45
18 18 18 18 19 20 21 21 22 21 22 19 18 19 18 18 19 20 21 22 22 24 24 25 26 28 30 30 30 28 27 28 27 28 29 30 32 32 32 32 32 33 34
17 17 18 19 21 21 21 21 20 21 20 19 18 18 17 17 17 19 19 19 21 22 22 22 23 24 26 28 28 27 26 25 26 26 26 27 28 29 30 29 29 30 31
16 17 19 19 21 21 21 20 18 18 19 18 19 18 18 16 16 17 17 18 19 20 20 21 21 21 23 24 25 24 23 23 24 26 26 26 26 28 28 28 27 27 28
18 17 21 20 20 21 20 20 18 17 17 17 17 18 17 16 16 16 17 18 17 17 19 19 19 18 20 22 22 22 21 20 20 22 25 24 25 28 28 24 24 24 25
17 18 19 19 18 19 19 17 16 17 17 18 17 17 17 17 16 16 16 17 17 16 16 17 17 19 17 20 20 19 18 17 18 18 20 23 23 24 23 21 21 20 21
18 18 16 16 14 14 18 13 10 12 12 17 18 17 17 17 17 16 17 17 17 16 15 15 16 16 17 17 19 18 16 15 15 15 16 18 20 21 21 20 19 19 20
16 15 15 13 9 11 14 12 12 10 9 13 13 14 14 17 16 14 15 16 15 16 14 13 14 15 15 17 17 17 16 15 12 12 13 14 16 16 17 15 17 17 15
15 15 14 12 8 11 11 13 10 10 12 13 10 10 11 12 12 9 12 14 14 13 14 12 11 12 14 14 15 15 14 12 10 11 12 12 12 12 11 12 12 10 10
15 15 14 12 9 7 13 11 13 13 13 11 10 11 9 10 9 13 13 13 14 12 11 13 10 11 12 12 13 12 11 10 8 7 6 7 10 4 5 6 6 6 7
16 17 16 16 15 17 14 12 15 17 16 16 15 14 14 9 8 10 10 13 14 14 11 10 12 10 10 12 13 12 9 8 7 3 3 2 3 2 1 1 0 1 2
16 16 15 15 16 16 17 17 18 17 17 15 15 14 14 12 12 9 8 15 15 14 15 14 12 10 13 12 11 11 11 9 8 1 -1 -1 -0 -0 -1 -2 -2 -2 -2

GFSMW_sfc_dewp_135.txt.gz
Dewpoint
27 27 28 28 28 29 30 30 30 32 31 30 30 31 31 32 33 33 36 36 37 40 39 40 43 46 47 50 54 58 59 59 60 62 63 64 65 64 64 64 65 63 63
26 27 27 28 28 28 29 29 29 31 30 30 30 30 31 31 32 33 34 36 36 37 37 39 40 43 46 47 49 54 59 60 62 61 60 58 62 64 63 64 64 64 63
26 26 27 27 28 28 28 28 29 30 30 30 28 29 30 31 31 32 32 34 36 37 38 38 40 41 43 45 47 50 54 57 60 61 57 55 53 59 63 63 63 63 64
26 26 26 26 27 27 28 27 29 28 28 30 29 29 28 27 29 30 31 32 35 36 38 39 39 41 41 43 44 44 49 53 57 61 61 58 60 57 54 62 63 64 63
25 25 26 25 26 26 27 27 28 28 28 28 29 28 28 28 29 31 31 32 34 35 36 38 40 41 41 42 44 46 47 51 52 58 59 60 59 59 56 55 59 63 63
25 25 26 25 25 26 26 26 27 27 27 27 27 27 27 28 29 30 31 32 34 36 37 38 39 41 41 41 42 44 45 46 50 52 59 57 58 56 56 54 56 57 61
24 25 25 24 25 25 25 25 26 26 26 26 26 26 26 28 29 31 32 32 34 35 36 38 39 40 41 41 42 42 43 44 48 51 52 59 58 58 57 56 54 54 58
24 24 24 24 24 24 24 25 25 25 25 25 25 25 26 27 31 31 32 34 35 36 37 37 38 40 41 42 43 42 42 44 46 48 49 50 59 58 58 57 56 55 55
24 24 24 23 22 23 24 26 25 25 25 25 25 25 26 28 29 30 31 32 34 36 37 37 37 39 40 42 43 43 43 43 46 49 50 53 55 59 60 59 59 56 52
25 25 24 23 21 22 23 25 25 25 26 26 25 25 27 28 30 30 29 30 32 35 36 36 36 36 39 41 44 43 44 45 46 46 49 49 52 57 59 59 58 58 56
25 25 24 23 24 24 25 26 26 25 26 25 25 27 27 28 28 28 29 30 32 34 34 35 34 34 36 38 41 44 45 45 47 48 48 51 51 52 56 60 59 58 56
25 23 23 23 24 25 25 26 24 24 24 24 25 26 26 26 26 27 28 29 30 32 32 34 33 32 33 34 36 36 37 38 38 39 39 40 43 47 55 57 58 59 59
22 19 21 22 24 24 25 25 24 23 23 23 23 23 23 24 25 25 27 28 29 30 30 31 31 31 31 31 32 32 33 33 34 34 36 34 35 37 42 43 44 55 58
22 19 19 21 23 24 24 24 23 23 22 22 21 21 22 23 23 24 26 26 27 27 28 29 31 30 29 29 29 29 30 30 31 32 32 33 32 32 34 34 35 40 47
20 19 20 21 22 22 23 22 22 23 22 21 20 21 21 21 23 23 23 24 25 25 26 26 26 29 29 29 28 28 27 27 28 29 29 32 33 32 32 31 31 33 40
19 18 18 17 19 19 20 19 20 22 21 21 20 20 20 21 21 22 22 22 23 24 23 25 25 25 28 27 27 26 27 26 26 26 28 29 30 30 30 30 30 30 29
17 16 18 19 20 20 19 18 18 20 19 20 19 19 19 19 20 20 21 21 22 22 22 22 24 23 24 24 24 24 24 25 26 26 26 26 27 27 27 27 27 28 29
16 16 17 19 21 19 18 16 15 15 17 17 19 19 19 18 19 20 20 20 21 21 21 21 22 23 23 21 21 21 24 23 23 26 25 25 25 25 25 25 24 25 26
21 22 22 21 21 20 18 16 15 15 14 15 16 16 19 19 19 19 20 20 19 19 20 20 20 20 21 19 19 20 21 21 20 22 23 23 23 23 24 23 23 23 23
21 21 22 21 21 21 19 19 18 17 17 18 17 16 16 17 18 19 20 20 19 18 19 19 19 18 19 18 18 18 17 17 18 18 20 19 19 19 20 20 20 19 21
20 21 21 20 20 21 21 18 18 16 17 19 18 18 18 18 18 18 19 19 18 17 18 18 19 18 18 18 17 16 17 16 15 16 17 18 16 16 17 17 18 17 19
20 19 19 18 18 19 19 18 17 16 17 18 17 17 18 19 19 18 18 17 18 17 16 16 15 16 18 16 15 15 14 13 12 14 14 14 12 13 12 13 14 14 14
19 19 18 17 17 18 19 17 17 17 17 17 16 17 17 18 19 19 19 17 17 16 16 14 14 15 16 17 14 12 12 10 10 12 12 10 10 9 9 9 9 9 12
17 17 18 17 16 18 19 18 18 18 17 17 17 18 18 18 18 18 18 18 17 16 15 15 15 15 16 17 16 14 12 9 9 8 9 8 8 5 6 8 9 9 9
17 17 18 18 18 19 19 19 19 18 17 16 17 15 14 16 16 18 17 16 19 17 15 15 16 15 15 17 14 14 12 10 8 8 8 8 6 5 5 5 5 4 4
15 15 16 17 18 18 17 17 16 16 15 13 12 13 13 13 13 12 14 15 15 15 15 15 15 16 14 13 12 11 11 10 8 7 7 7 7 5 4 4 3 3 2

GFSMW_sfc_dewp_138.txt.gz
Dewpoint
28 29 31 31 32 33 33 33 34 37 34 32 33 33 34 34 36 36 39 40 40 42 42 41 43 44 45 46 48 51 55 58 58 57 58 61 63 66 65 65 65 64 63
28 29 30 31 32 32 33 32 32 34 33 32 32 32 33 33 35 36 38 39 39 40 40 41 41 43 43 46 48 50 48 52 56 56 59 56 57 62 64 64 63 63 63
28 28 29 30 31 31 32 31 32 32 33 34 31 31 32 32 33 34 34 35 37 38 39 41 41 42 43 43 45 47 49 48 52 60 55 53 51 52 58 63 62 64 64
28 28 28 29 30 30 32 31 32 31 31 32 30 31 29 28 30 31 32 33 36 36 37 38 39 40 41 43 44 44 46 47 48 53 58 61 56 51 51 58 62 63 63
28 28 28 28 28 30 30 31 32 30 31 31 31 29 29 28 28 30 31 32 34 35 35 37 38 38 41 41 43 44 46 46 46 47 52 59 59 59 58 54 57 63 63
28 27 28 28 28 29 31 31 31 30 30 30 30 29 28 28 27 28 29 30 31 33 35 36 38 39 40 41 42 42 44 44 46 46 50 54 55 57 57 56 57 58 61
28 27 26 27 28 29 30 30 29 29 29 29 28 27 27 27 28 28 29 30 31 31 34 35 36 37 38 41 42 43 43 43 44 46 48 52 54 55 58 58 57 57 58
28 27 27 28 26 28 29 30 28 28 28 29 28 27 27 26 28 28 29 30 31 32 34 35 36 36 37 39 41 42 43 43 43 44 46 48 50 53 54 60 57 56 57
27 27 27 27 24 23 26 28 27 28 28 29 28 27 26 27 28 29 30 31 32 32 35 36 36 36 37 39 41 41 42 43 43 44 46 47 51 55 56 58 58 58 54
28 28 28 25 22 21 23 27 26 27 29 29 28 26 27 29 30 30 30 30 31 33 33 35 36 36 36 37 41 45 43 43 44 44 46 47 48 52 55 54 59 58 55
31 31 29 25 24 25 26 28 28 28 28 28 28 28 29 30 30 30 30 30 31 31 32 34 33 34 34 35 36 37 41 40 40 40 41 42 46 51 53 54 53 58 59
30 28 30 29 28 29 28 28 26 26 26 26 28 28 28 28 28 30 30 31 31 32 31 33 31 31 32 33 33 33 34 34 35 35 36 36 39 43 44 47 49 53 54
27 25 26 26 27 27 27 26 26 26 26 25 26 26 26 26 26 27 29 29 29 30 31 31 30 30 30 30 31 32 31 32 32 33 32 33 34 36 38 39 41 42 49
27 25 22 23 25 26 26 26 25 25 25 24 24 24 25 25 26 26 26 25 25 26 27 30 31 30 29 29 29 28 28 29 29 30 31 31 31 31 33 34 35 39 43
26 23 22 23 24 23 23 23 24 24 24 23 23 23 24 25 25 25 24 24 24 24 25 24 25 27 28 29 28 30 28 28 28 28 28 30 31 32 31 31 32 32 34
25 21 19 17 17 17 20 18 21 24 23 22 21 22 23 23 23 24 23 24 23 25 25 26 26 26 26 23 25 26 28 27 26 27 28 27 30 30 29 30 30 29 30
24 17 15 17 18 18 17 17 18 21 21 22 21 21 21 21 22 22 22 23 23 24 24 25 26 25 24 22 22 23 26 26 25 25 26 26 26 28 28 28 28 28 28
21 16 16 18 19 15 14 14 12 14 17 17 20 21 21 21 21 22 21 22 24 23 23 23 24 24 23 20 21 21 24 25 24 24 24 24 25 26 27 28 29 28 27
24 28 24 23 20 18 16 14 13 12 14 15 15 16 21 21 21 21 22 23 23 23 22 22 21 22 22 19 19 22 23 22 21 21 21 21 21 20 22 24 23 25 27
26 25 25 22 24 23 20 21 19 19 19 19 18 16 16 19 21 22 22 23 23 23 22 21 20 19 21 17 18 20 20 20 19 19 19 16 17 17 18 20 21 20 23
24 26 25 24 24 24 22 20 20 19 20 20 20 21 19 20 20 21 23 22 22 22 22 22 22 19 18 19 16 17 19 19 17 17 17 18 14 15 15 16 19 18 21
24 24 23 22 23 23 22 20 19 20 20 19 19 20 21 23 23 22 22 22 22 21 21 20 18 19 20 16 15 15 15 15 15 16 16 16 13 14 14 15 13 14 17
23 24 23 22 23 23 23 20 21 21 21 20 19 20 20 22 24 24 23 22 22 21 21 19 19 19 19 20 15 14 13 13 14 14 13 12 12 12 13 12 12 12 17
20 21 21 21 21 23 22 22 21 21 20 19 19 20 20 22 23 22 22 22 22 21 21 20 20 20 18 19 18 17 17 13 15 14 15 12 12 11 12 12 13 14 13
19 19 19 19 21 22 22 22 21 20 19 19 19 18 18 20 20 20 20 19 20 19 19 20 19 19 18 17 15 15 16 16 14 15 16 15 13 12 12 11 10 10 9
16 16 17 18 18 18 17 17 17 16 16 15 15 16 16 16 16 16 17 15 16 15 16 14 17 18 14 13 12 12 12 11 11 14 14 15 14 12 10 10 10 10 7

GFSMW_sfc_dewp_141.txt.gz
Dewpoint
30 30 33 34 34 36 36 35 36 39 37 34 35 35 35 36 37 38 40 41 41 42 43 41 43 44 44 45 47 47 50 50 54 55 54 55 57 60 61 64 62 64 65
29 30 32 34 35 35 36 35 35 36 35 34 34 34 34 34 35 37 39 39 40 40 39 41 41 43 43 45 46 47 47 48 51 51 52 50 52 57 59 61 64 65 65
29 30 31 33 34 34 35 34 34 34 35 35 32 33 33 33 33 34 34 35 37 37 38 38 38 40 42 43 44 45 46 46 49 53 51 48 48 50 58 61 61 64 64
29 29 31 31 32 33 34 35 35 34 33 35 33 34 30 29 31 31 32 32 34 35 36 37 38 39 39 39 41 43 45 46 46 49 50 56 56 54 51 55 60 63 63
30 30 30 30 30 32 34 35 35 33 34 34 34 31 31 30 29 30 31 31 32 33 33 36 38 38 39 40 41 41 43 44 45 45 46 50 52 56 56 54 55 61 61
30 29 30 30 30 32 34 35 34 33 33 33 33 32 30 29 28 28 29 30 31 32 33 33 35 36 37 38 40 41 42 43 44 44 47 47 48 49 54 55 55 57 61
30 30 29 29 30 31 34 33 32 31 30 33 32 31 30 29 28 28 28 29 31 32 32 33 35 35 36 38 39 40 41 43 43 43 44 47 48 50 51 53 54 56 57
31 30 30 30 28 29 30 30 28 28 29 32 32 30 29 28 28 28 29 29 30 32 32 33 34 36 36 37 38 39 41 41 43 44 43 44 45 47 49 51 53 54 55
30 29 30 30 27 25 26 28 25 25 30 31 31 30 29 28 28 29 30 31 32 31 32 33 34 36 37 38 39 40 40 41 43 43 44 43 45 48 48 50 52 53 51
31 30 30 29 26 23 25 28 26 26 29 30 30 29 29 29 30 32 32 31 32 32 32 33 34 34 35 35 37 37 42 42 42 43 43 44 45 46 48 51 54 56 55
34 34 32 28 26 26 27 29 29 28 27 27 29 30 30 30 30 30 31 31 31 33 33 32 32 32 32 33 34 35 35 36 36 36 37 38 41 45 49 52 53 54 55
34 34 33 32 31 31 31 30 28 28 27 25 26 28 28 28 28 29 29 32 31 33 33 33 30 30 31 31 31 31 32 32 32 32 32 32 34 38 41 43 45 50 52
32 30 30 29 31 29 29 28 29 28 28 26 26 27 27 27 28 28 29 28 29 31 31 31 30 29 30 31 30 31 30 30 30 30 30 30 31 32 35 37 41 43 48
30 29 28 27 27 28 28 28 28 28 28 26 26 25 26 27 28 28 27 25 25 25 25 28 29 28 29 30 31 30 30 30 30 29 30 30 29 29 30 31 34 36 41
29 28 27 26 25 24 24 24 25 27 26 25 25 25 25 26 26 26 25 24 25 24 25 23 23 24 25 26 27 28 28 28 28 28 28 29 33 31 30 28 29 31 32
29 28 25 21 19 19 21 19 22 26 25 24 23 24 24 24 25 25 25 25 24 25 27 26 24 26 26 23 24 24 25 23 23 25 25 25 27 33 32 30 29 29 28
29 27 23 17 17 17 17 18 20 23 21 24 23 23 23 23 24 24 25 25 26 25 25 25 25 24 25 23 23 23 26 23 22 21 22 22 23 26 28 28 28 27 28
29 25 19 18 19 15 14 14 12 17 18 18 21 23 23 23 24 24 25 26 26 25 24 23 23 23 23 21 23 23 26 25 22 21 21 21 21 23 24 25 26 27 27
30 33 23 21 18 15 15 12 11 12 14 15 16 17 23 23 23 24 25 26 26 25 24 23 22 22 21 20 21 25 26 24 22 21 20 19 19 19 22 23 23 25 26
33 30 31 21 25 25 19 26 19 19 20 20 18 17 19 20 23 25 24 26 28 26 26 24 22 20 21 18 19 22 22 22 20 20 21 17 18 17 18 20 21 21 24
30 31 32 28 26 26 25 23 23 22 22 23 21 22 21 21 21 22 24 24 24 24 26 25 26 23 21 20 17 18 21 20 18 18 19 20 16 16 17 17 20 20 23
27 27 26 25 25 25 24 21 20 21 21 22 22 22 24 25 25 24 25 24 25 23 23 22 20 20 22 18 17 17 16 17 16 18 18 19 16 16 15 17 16 17 20
26 26 25 24 24 24 24 21 21 22 21 21 21 22 24 25 27 27 26 24 25 23 23 22 21 20 19 20 18 17 16 16 17 18 18 15 15 16 17 14 14 17 19
21 22 23 23 23 24 24 23 22 22 21 21 21 23 24 25 26 24 23 23 24 23 22 21 21 21 19 18 18 19 19 17 19 19 19 17 17 16 17 18 18 18 18
20 20 19 19 22 23 23 23 22 21 21 21 22 21 21 22 21 21 21 19 19 18 19 22 19 19 17 17 16 15 16 17 18 19 19 18 16 14 14 14 15 14 13
18 16 16 17 18 19 19 19 19 18 18 17 18 19 18 19 19 19 17 15 15 15 15 14 16 19 13 13 13 12 12 12 14 17 17 17 17 15 13 12 12 13 10

GFSMW_sfc_dewp_147.txt.gz
Dewpoint
32 33 35 35 36 36 35 35 36 37 35 35 34 34 34 34 35 34 34 34 33 34 33 35 35 37 36 37 37 38 39 41 45 46 48 49 52 56 59 59 59 59 58
31 33 34 35 35 35 35 35 35 35 35 35 34 34 33 34 34 33 32 32 32 33 32 33 33 34 36 37 36 35 37 39 41 44 46 45 46 52 56 58 58 58 59
30 31 34 34 34 34 34 35 34 34 35 34 34 33 32 31 31 30 30 30 31 31 32 32 34 34 34 34 34 36 35 35 39 42 44 45 45 48 51 54 57 59 59
30 31 32 33 33 34 35 35 35 33 32 35 33 32 30 29 30 30 30 30 30 31 32 33 33 32 33 33 33 34 36 37 37 39 41 44 44 46 46 52 55 57 58
29 30 31 31 32 34 35 35 34 32 32 34 33 31 30 30 29 29 29 29 30 31 31 32 32 32 33 33 34 35 35 37 37 37 39 40 43 44 48 45 47 53 58
30 31 30 31 33 34 34 33 32 30 32 33 32 30 29 28 28 28 28 29 30 31 31 31 31 33 33 34 34 35 36 37 37 39 39 39 41 43 45 47 46 48 52
30 30 30 30 31 32 29 28 27 28 31 31 31 30 28 28 28 29 29 29 29 29 30 31 30 31 33 34 35 36 37 37 37 38 38 40 41 42 43 43 43 46 48
30 30 31 30 29 28 27 25 25 28 30 31 30 29 28 28 29 29 30 29 30 31 32 33 30 31 34 34 35 37 35 37 38 39 39 40 42 43 42 43 43 41 43
31 31 31 29 26 27 27 25 25 27 28 30 29 28 28 28 28 29 30 29 31 32 32 31 30 31 33 33 34 34 34 35 38 39 40 41 42 44 43 43 43 42 40
31 31 30 28 26 28 27 27 26 26 26 27 27 26 27 28 28 29 29 29 31 31 31 30 29 29 31 31 33 32 33 33 33 34 34 35 36 39 41 44 45 44 43
33 33 32 29 29 28 28 28 27 27 25 26 27 26 26 27 28 28 28 28 29 28 29 30 29 29 29 28 29 30 30 29 29 32 32 32 35 34 35 37 42 44 46
34 32 30 29 26 25 25 24 26 26 26 26 26 26 25 26 27 28 27 27 27 26 26 26 26 26 27 27 26 25 27 27 26 28 31 30 31 31 32 33 36 38 43
32 30 29 26 23 26 23 24 21 20 23 25 24 23 23 25 26 26 27 26 25 25 24 24 25 25 24 23 23 24 24 25 25 25 27 30 29 29 30 30 32 34 36
34 31 28 27 27 26 22 17 22 19 19 20 20 19 18 22 24 25 26 24 23 23 22 23 23 26 23 22 21 21 20 21 22 23 25 28 30 29 29 28 29 30 30
32 31 29 28 27 27 26 25 24 16 15 16 16 15 18 23 25 25 25 24 23 22 21 21 21 24 24 23 20 19 19 18 19 20 21 25 29 31 31 28 27 27 26
32 31 30 28 27 27 26 27 25 22 21 12 13 16 19 20 23 25 24 22 21 21 19 19 20 21 27 25 21 20 19 19 17 18 19 21 24 25 26 27 28 28 25
31 30 28 27 26 25 25 25 25 24 22 16 11 13 15 15 17 23 22 20 18 19 19 18 18 19 24 24 23 20 18 17 17 17 18 19 21 21 22 23 25 26 25
31 29 27 25 23 21 23 24 24 24 23 22 21 17 16 14 15 17 16 17 17 16 17 15 17 18 21 22 21 21 15 16 16 17 17 17 18 20 20 20 19 19 22
31 29 27 23 20 19 21 20 20 19 22 23 22 23 20 16 16 15 16 16 16 15 15 15 13 16 19 21 20 19 17 14 13 16 19 17 18 20 21 16 16 16 16
29 26 25 23 23 21 20 21 20 20 20 22 23 23 24 24 23 19 17 18 19 20 21 17 16 20 17 20 21 20 18 16 17 17 17 19 18 19 19 16 15 14 14
25 24 23 22 22 23 23 20 18 19 20 24 24 24 24 24 24 24 25 24 24 25 22 20 19 18 19 19 20 21 17 14 17 17 16 19 19 18 17 17 15 14 12
22 21 21 21 20 22 21 18 16 17 19 21 20 19 22 26 26 23 23 25 25 25 23 21 18 18 18 17 19 20 20 20 19 13 14 17 17 18 16 14 16 15 12
23 22 21 19 17 19 20 17 16 18 19 18 17 17 21 21 22 21 20 20 22 21 21 21 17 15 16 16 17 17 18 19 17 19 18 17 16 16 17 14 13 12 12
25 23 22 20 18 18 19 17 18 17 18 18 16 17 21 21 20 19 18 16 16 16 19 16 14 12 13 12 14 15 14 16 18 15 15 13 17 10 9 13 13 12 11
25 24 23 22 21 21 18 19 20 21 21 21 21 24 23 19 17 17 16 16 12 16 16 12 12 6 5 9 15 13 13 12 15 12 12 11 10 10 10 10 10 12 11
25 23 22 22 22 23 21 21 21 20 21 21 22 23 21 19 17 16 16 17 17 16 16 17 13 11 13 14 15 14 14 13 14 10 7 4 4 7 7 8 8 9 9

GFSMW_sfc_dewp_150.txt.gz
Dewpoint
32 34 35 36 35 34 35 35 35 35 34 34 33 33 32 33 32 32 32 31 32 32 31 32 33 35 35 35 36 35 35 36 38 39 42 44 48 49 53 58 59 60 60
32 34 35 34 34 34 35 34 34 34 34 34 33 33 32 32 32 31 30 30 30 31 31 32 32 33 33 33 33 33 34 33 35 36 40 41 44 47 47 53 58 58 58
32 34 34 34 34 34 34 34 33 33 34 33 32 31 31 30 30 29 29 30 30 31 32 32 31 31 32 32 32 32 31 33 35 37 39 40 43 44 49 53 56 57 57
32 33 33 33 33 34 34 34 32 32 33 32 31 30 29 28 29 29 29 29 30 31 31 32 30 31 32 32 33 33 34 34 33 36 34 37 41 42 43 48 49 54 57
31 32 32 32 34 34 34 32 31 32 33 31 30 29 28 29 29 29 29 29 29 30 30 32 29 30 32 32 33 33 34 35 35 35 36 36 38 41 43 41 43 49 54
30 31 31 33 34 34 32 30 30 31 32 30 30 29 28 27 27 28 28 28 28 29 30 31 30 30 31 32 33 34 35 36 36 36 36 36 37 38 42 44 44 44 47
30 30 31 32 33 29 27 27 29 30 31 30 29 28 28 27 27 28 28 27 28 30 30 30 30 30 32 33 34 35 35 36 36 37 37 38 38 39 40 41 41 41 43
30 30 31 32 29 26 23 26 28 29 30 29 28 28 28 28 28 28 28 28 30 30 31 30 29 29 31 31 33 33 33 35 34 37 39 39 39 40 41 42 41 39 40
30 30 30 29 27 25 24 25 26 27 28 27 26 26 27 27 27 27 28 28 30 29 30 30 28 28 29 28 30 30 30 31 33 34 35 36 38 41 42 42 42 41 38
30 30 29 28 27 26 27 26 25 25 27 27 26 26 26 27 27 27 26 27 28 27 27 28 28 27 27 27 27 28 28 29 29 32 32 33 35 36 37 39 43 44 42
32 32 29 29 28 27 27 27 27 26 26 26 25 25 25 26 26 26 25 26 26 25 25 26 26 24 25 25 25 25 25 25 25 27 31 30 33 33 34 36 39 41 42
33 31 29 29 27 25 24 24 26 25 26 26 25 25 25 24 24 24 25 25 25 24 25 25 26 22 22 22 23 23 24 23 23 25 28 29 30 30 32 34 34 37 39
31 29 27 24 22 24 23 23 21 20 24 25 24 23 21 22 20 22 23 24 23 22 23 24 25 22 21 20 21 21 20 22 23 25 26 28 28 27 28 30 31 33 32
31 29 27 26 24 25 21 18 21 18 18 20 20 19 16 16 17 21 23 22 21 21 21 23 25 24 21 20 20 20 19 20 21 23 26 27 28 28 27 27 28 28 28
30 29 28 26 26 24 24 23 23 16 14 16 16 12 14 20 23 23 23 21 21 20 21 21 23 25 21 21 19 19 19 18 19 21 22 24 26 28 30 26 26 25 24
32 31 29 26 27 24 24 23 24 20 20 14 11 13 16 16 20 21 20 21 20 19 17 19 20 23 23 21 21 19 18 18 18 19 20 21 22 23 24 25 25 25 23
33 32 29 27 26 25 24 23 23 23 21 16 8 12 12 11 14 22 20 18 14 17 16 16 18 20 21 20 20 20 16 16 15 17 18 19 20 20 19 20 21 22 22
32 31 29 28 27 26 26 24 22 21 21 21 20 13 13 12 11 14 14 13 13 12 13 15 17 17 21 20 20 20 13 14 14 14 17 17 17 18 17 16 15 15 18
32 31 29 27 25 25 25 24 21 20 20 20 21 22 19 15 14 14 16 14 13 10 10 13 16 16 19 20 19 19 16 14 15 17 18 17 17 19 19 13 11 11 11
29 28 26 23 23 24 24 24 23 23 22 22 22 23 23 23 22 18 16 17 18 15 18 18 16 20 16 21 20 20 19 16 16 17 18 18 17 18 17 14 12 9 8
24 24 24 23 22 23 23 20 20 20 20 24 24 24 24 24 24 24 24 24 23 22 20 18 17 16 18 19 21 21 19 16 16 16 16 18 17 16 17 16 12 11 7
21 18 20 19 16 21 21 19 19 17 19 20 21 21 21 25 25 24 24 26 24 22 20 17 15 16 17 18 19 20 21 20 18 14 14 17 17 16 15 14 14 13 9
20 18 19 16 11 16 20 19 18 18 18 18 18 16 19 20 18 18 18 21 22 21 20 16 14 14 16 16 17 21 20 19 17 17 16 16 15 15 15 14 14 11 9
21 20 19 18 16 15 21 20 19 20 19 18 17 16 21 17 15 18 18 18 15 16 16 13 8 7 11 12 14 15 15 16 14 13 11 12 14 7 7 11 11 11 8
24 21 20 20 20 20 18 19 19 20 20 21 21 23 22 18 16 15 16 17 11 16 12 7 8 3 3 8 14 14 14 14 14 10 9 7 7 7 7 7 8 9 9
25 23 22 21 21 20 19 19 20 20 20 21 22 23 20 19 16 16 16 19 19 18 16 15 11 10 14 15 16 14 14 13 13 7 2 -3 -2 4 5 4 4 5 6

GFSMW_sfc_dewp_156.txt.gz
Dewpoint
33 35 35 35 35 35 34 33 33 33 32 32 32 32 31 30 30 30 30 31 31 32 31 30 32 29 29 30 31 31 32 32 33 33 32 32 34 35 38 42 45 45 47
32 35 34 34 34 34 34 33 32 32 32 31 31 31 30 30 29 30 30 30 30 30 29 29 31 29 29 29 30 30 31 33 32 31 32 32 34 36 38 42 41 44 48
32 34 34 33 34 33 33 33 32 31 31 30 29 28 28 29 28 28 28 29 30 30 30 29 30 29 28 30 30 31 31 31 31 32 33 30 32 33 40 41 47 48 52
32 34 34 33 33 33 33 32 32 31 30 29 28 27 26 25 27 28 28 28 29 30 29 29 29 28 29 30 31 31 32 33 32 33 34 35 35 33 33 37 39 41 48
32 34 34 33 33 34 32 32 31 30 29 28 28 27 26 26 27 27 27 27 28 30 29 28 27 27 28 29 28 31 32 32 33 33 34 35 35 37 36 32 34 38 47
32 33 34 33 34 32 31 32 30 30 29 28 27 26 25 25 25 25 26 26 28 28 28 28 27 27 28 27 28 31 30 30 30 32 33 35 35 34 36 36 37 40 44
32 33 33 33 33 31 30 31 30 29 28 27 27 26 26 25 25 25 25 26 26 26 27 28 27 26 27 26 27 29 27 29 28 29 31 33 36 38 37 37 36 36 39
32 33 33 33 33 30 29 30 30 28 27 26 26 26 26 26 25 25 25 25 25 26 26 26 25 25 26 26 26 27 26 26 27 27 30 31 35 36 38 38 38 36 39
32 32 33 33 32 29 29 30 29 28 26 25 25 25 25 26 25 25 25 25 25 25 25 25 23 23 24 24 25 26 24 26 26 27 30 30 32 35 37 37 38 38 37
32 32 33 33 30 28 28 29 28 27 25 25 25 25 25 26 25 25 24 23 23 23 24 24 22 22 23 23 23 23 24 24 26 27 29 29 30 32 34 36 37 41 39
32 33 33 32 27 27 27 27 26 26 25 24 24 25 25 25 24 24 23 22 22 23 24 24 22 21 21 22 21 21 22 23 24 25 28 27 28 29 30 34 36 37 38
32 33 33 30 28 27 26 25 26 26 25 25 25 26 25 25 23 22 23 22 21 23 24 24 21 20 20 21 21 20 21 21 22 24 25 26 27 27 28 30 31 33 33
31 30 30 30 28 26 25 26 25 25 26 25 25 25 23 22 18 19 21 22 21 22 24 24 21 21 20 20 21 21 20 21 21 23 23 26 26 24 26 27 28 30 31
31 30 29 28 26 26 24 23 25 24 23 23 22 20 17 17 15 19 21 21 21 22 23 24 22 21 21 20 20 19 20 20 21 21 22 23 26 25 25 25 25 27 27
30 29 28 27 26 25 24 23 23 21 19 19 18 15 14 19 21 21 21 21 21 21 22 22 22 22 21 22 19 19 19 19 19 20 20 21 23 25 25 24 23 23 23
32 30 29 27 25 24 23 22 23 20 19 16 14 16 18 16 18 20 20 19 19 18 15 20 20 19 23 22 21 19 18 17 18 18 18 18 19 19 21 23 23 23 21
32 31 29 26 26 24 22 22 22 22 20 16 10 15 14 10 10 18 16 15 14 15 14 14 17 16 18 22 22 21 16 15 14 17 17 16 16 14 13 17 18 21 21
32 31 29 27 26 24 22 22 21 21 20 20 17 13 13 10 6 8 8 8 11 10 13 14 16 17 21 20 21 20 14 12 14 13 15 15 16 16 12 11 11 11 17
33 32 30 28 24 23 22 21 20 20 19 20 21 20 16 12 10 11 10 9 11 10 10 14 16 16 19 20 20 19 16 14 15 16 17 15 14 16 16 8 7 7 6
31 30 28 27 25 23 22 21 19 19 19 20 21 21 21 20 17 16 13 12 14 13 16 16 13 21 18 21 19 19 18 15 17 17 17 18 16 16 14 10 7 5 3
27 28 27 26 24 23 22 18 17 17 18 21 22 22 23 23 22 21 21 19 19 18 18 17 15 15 19 21 20 18 16 16 15 15 16 18 17 16 15 13 10 8 4
27 25 25 24 24 22 21 17 17 15 18 19 20 21 22 24 24 23 22 20 20 19 17 15 15 17 18 23 21 20 18 17 14 13 14 16 16 16 15 13 12 11 6
24 21 22 20 21 23 21 19 16 18 19 18 18 19 20 20 21 21 23 21 21 18 16 15 13 14 16 17 19 19 19 17 15 15 14 14 13 13 13 13 12 10 7
22 20 20 19 17 19 22 19 19 20 20 18 17 15 15 11 10 18 23 22 20 17 17 14 9 9 13 12 13 13 13 14 11 9 7 9 10 4 4 7 8 8 7
21 21 21 21 20 19 17 18 20 21 21 20 19 21 20 17 13 13 16 21 14 18 14 10 10 9 8 9 12 11 10 8 8 6 5 4 3 2 3 3 4 5 4
21 20 20 20 19 19 19 20 21 21 21 20 21 21 19 18 18 17 17 22 21 20 16 15 13 12 16 20 19 16 14 12 10 4 -1 -3 -4 -1 0 0 0 1 1

GFSMW_sfc_dewp_159.txt.gz
Dewpoint
35 37 37 37 36 36 36 36 36 37 36 34 34 33 30 29 30 30 32 32 32 33 32 31 32 32 31 31 32 32 32 31 32 32 32 34 37 39 38 41 44 45 45
34 36 36 36 36 36 36 35 35 35 34 32 32 32 31 29 29 30 30 32 32 32 30 31 30 31 30 31 31 31 31 31 32 32 32 30 33 35 34 37 40 43 47
34 35 35 36 36 35 36 35 34 33 32 32 31 30 30 28 28 28 28 30 31 32 32 31 30 30 30 30 30 30 31 31 32 33 33 30 29 32 33 35 37 41 41
34 35 35 35 35 35 35 35 34 32 31 30 27 26 21 21 27 28 28 29 31 31 31 30 30 30 30 29 29 29 31 30 30 32 33 34 35 34 32 33 35 38 39
34 34 34 34 34 35 35 35 33 32 30 29 28 26 25 26 27 27 26 28 30 30 29 30 30 29 29 28 29 29 29 30 30 30 30 31 33 35 35 32 34 39 43
33 35 35 35 34 34 34 34 32 30 30 29 28 27 26 25 22 23 24 25 28 28 26 26 28 28 28 28 28 29 29 29 29 29 30 30 32 33 35 34 34 36 40
33 34 34 33 34 33 33 33 31 30 30 29 27 26 26 25 23 23 23 23 25 25 23 24 25 26 27 28 28 28 28 28 27 28 29 29 30 34 35 35 35 36 38
33 34 34 34 34 33 33 32 31 30 28 27 26 26 25 24 23 23 23 23 25 25 23 23 23 26 26 27 27 28 27 28 28 28 29 30 31 33 34 35 36 36 36
33 34 35 35 34 33 33 33 31 30 28 26 24 25 25 24 22 23 22 24 25 23 24 23 22 24 26 26 27 27 26 28 28 28 29 29 30 32 33 36 36 36 35
33 34 34 35 35 33 33 33 31 29 27 25 24 24 25 25 24 25 24 25 26 25 24 23 22 23 24 25 25 26 26 27 27 27 27 28 29 30 32 35 37 37 37
34 36 35 35 34 33 32 32 31 29 26 24 24 25 27 26 26 25 25 26 27 25 23 22 22 23 23 24 25 24 24 25 26 26 27 27 28 28 30 33 34 35 36
34 35 37 37 34 34 34 33 31 29 27 25 25 28 28 26 25 25 25 26 26 26 24 24 22 22 22 24 24 23 24 23 23 24 25 26 27 28 29 30 30 31 34
33 34 34 32 33 31 31 32 31 31 29 26 27 28 28 25 24 24 25 25 26 26 25 24 24 23 22 22 23 23 22 22 23 23 23 25 26 26 26 28 29 29 30
32 33 32 32 30 30 30 30 30 29 29 28 27 26 26 24 23 24 24 24 24 24 24 23 24 25 23 21 21 21 21 22 22 22 22 23 24 26 26 26 26 28 27
31 32 32 31 30 28 28 27 28 28 28 26 25 24 25 23 22 23 22 23 24 23 21 21 22 21 21 23 21 21 20 20 20 20 19 21 22 23 25 24 25 24 23
31 31 31 30 28 27 26 25 25 25 25 24 23 23 25 23 23 23 23 23 22 23 23 23 23 25 22 21 21 19 20 18 17 19 18 16 18 19 21 22 22 21 22
32 31 31 30 29 27 26 25 24 24 23 22 22 23 22 20 21 22 22 21 22 23 23 23 24 24 25 21 21 21 22 21 20 19 18 16 14 13 13 16 18 20 20
33 33 31 30 29 27 25 24 22 21 21 21 22 21 18 18 19 19 19 21 23 23 23 23 24 25 24 21 20 20 22 22 21 20 19 19 18 17 12 11 13 15 19
36 36 33 30 28 26 24 22 21 19 19 19 21 18 18 17 17 18 20 22 23 23 23 24 24 24 23 19 19 20 21 21 21 22 20 19 18 16 15 12 11 12 13
37 34 33 28 29 28 25 25 22 20 19 20 21 17 16 16 18 20 21 22 23 23 24 23 24 23 24 19 19 20 19 20 19 21 21 17 18 16 14 14 12 9 11
32 32 30 28 27 27 26 24 23 23 24 24 22 21 19 19 19 20 21 21 21 21 22 22 22 23 24 23 19 18 20 19 18 19 20 20 16 15 15 14 13 11 12
31 30 28 26 26 26 25 22 21 23 24 25 25 25 25 25 23 22 23 20 19 18 18 18 18 19 24 23 21 18 17 16 16 17 18 18 16 15 14 13 12 11 11
30 30 27 25 25 25 25 22 22 21 23 23 24 25 26 27 26 24 23 23 22 22 18 16 18 19 22 23 19 18 17 16 16 17 14 13 12 12 13 12 11 10 12
27 26 26 25 24 25 25 25 21 21 22 23 23 25 25 26 26 26 25 24 23 23 22 18 18 20 21 21 21 20 19 14 14 12 11 10 10 8 9 10 11 11 10
26 26 26 26 25 24 24 23 22 22 21 22 23 23 24 25 25 26 26 25 26 24 23 20 19 19 19 19 17 16 16 15 12 11 11 10 8 8 8 8 7 7 5
24 25 25 25 24 24 22 22 21 20 21 19 21 22 23 24 24 24 24 24 24 23 21 17 18 20 18 17 16 14 14 11 8 9 8 8 8 7 6 7 6 5 3